Location: Unspecified
(0.0000°N, 0.0000°E)
Time: 09:47:19
(UTC+00:00)

AO-7 - Visible Passes

Search period start: 21 October 2019 00:00
Search period end: 31 October 2019 00:00
Orbit: 1439 x 1459 km, 101.8° (Epoch: 20 October)

Date Brightness Start Highest point End Pass type
(mag) Time Alt. Az. Time Alt. Az. Time Alt. Az.
21 Oct ? 03:17:22 10° NNE 03:25:40 89° WNW 03:34:02 10° SSW visible
22 Oct ? 02:18:57 10° NE 02:26:01 31° ESE 02:33:05 10° SSE visible
22 Oct ? 04:11:06 10° NNW 04:18:23 35° WNW 04:25:44 10° SW visible
23 Oct ? 03:10:24 10° NNE 03:18:42 81° ESE 03:27:03 10° SSW visible
23 Oct ? 05:09:00 10° WNW 05:10:58 11° WNW 05:12:56 10° W visible
24 Oct ? 02:12:21 10° NE 02:19:03 27° ESE 02:25:45 10° SSE visible
24 Oct ? 04:03:51 10° N 04:11:24 40° WNW 04:19:01 10° SW visible
25 Oct ? 03:03:27 10° NNE 03:11:43 72° ESE 03:20:01 10° S visible
25 Oct ? 05:00:27 10° NW 05:04:01 13° WNW 05:07:36 10° W visible
26 Oct ? 02:05:49 10° ENE 02:12:05 24° ESE 02:18:20 10° SSE visible
26 Oct ? 03:56:39 10° N 04:04:25 46° WNW 04:12:17 10° SW visible
27 Oct ? 02:56:33 10° NNE 03:04:44 64° ESE 03:12:58 10° S visible
27 Oct ? 04:52:31 10° NW 04:57:04 16° WNW 05:01:39 10° WSW visible
28 Oct ? 01:59:23 10° ENE 02:05:07 21° ESE 02:10:51 10° SSE visible
28 Oct ? 03:49:30 10° N 03:57:27 52° WNW 04:05:29 10° SSW visible
29 Oct ? 02:49:41 10° NNE 02:57:45 57° ESE 03:05:52 10° S visible
29 Oct ? 04:44:48 10° NNW 04:50:06 19° WNW 04:55:27 10° WSW visible
30 Oct ? 01:53:04 10° ENE 01:58:09 18° ESE 02:03:16 10° SE visible
30 Oct ? 03:42:22 10° N 03:50:28 59° WNW 03:58:38 10° SSW visible
